Weather History for KSNS - March, 2013

Change the Weather History Date:

Monday, March 25, 2013

  Actual Average Record
Temperature  
Mean Temperature 53 °F 55 °F  
Max Temperature 62 °F 65 °F 85 °F (1988)
Min Temperature 44 °F 45 °F 29 °F (1936)
Degree Days  
Heating Degree Days 12 10  
Month to date heating degree days 244 262  
Since 1 July heating degree days 1999 2076  
Cooling Degree Days 0 0  
Month to date cooling degree days 0 0  
Year to date cooling degree days 0 0  
Growing Degree Days 2 (Base 50)    
Moisture  
Dew Point 45 °F    
Average Humidity 77    
Maximum Humidity 93    
Minimum Humidity 60    
Precipitation  
Precipitation 0.00 in 0.06 in 0.52 in (1993)
Month to date precipitation 0.37 1.92  
Year to date precipitation 1.97 7.01  
Since 1 July precipitation 8.61  
Sea Level Pressure  
Sea Level Pressure 30.03 in    
Wind  
Wind Speed 6 mph (West)    
Max Wind Speed 16 mph    
Max Gust Speed 21 mph    
Visibility 7 miles    
Events      
T = Trace of Precipitation, MM = Missing Value Source: NWS Daily Summary

Daily Weather History Graph

Daily Weather History Graph

Search for Another Location

Airport or City:

Trip Planner

Search our weather history database for the weather conditions in past years. The results will help you decide how hot, cold, wet, or windy it might be!

Date:

Astronomy

Mar. 25, 2013 Rise Set
Actual Time 7:02 AM PDT 7:22 PM PDT
Civil Twilight 6:36 AM PDT 7:48 PM PDT
Nautical Twilight 6:05 AM PDT 8:19 PM PDT
Astronomical Twilight 5:35 AM PDT 8:50 PM PDT
Moon 6:01 PM PDT (3/25) 5:46 AM PDT (3/25)
Length of Visible Light 13h 12m
Length of Day
12h 20m
Waxing Gibbous, 97% of the Moon is Illuminated
Mar 25
Waxing Gibbous
Mar 27
Full
Apr 2
Last Quarter
Apr 10
New
Apr 18
First Quarter

Hourly Weather History & Observations

Time (PDT) Temp. Windchill Dew Point Humidity Pressure Visibility Wind Dir Wind Speed Gust Speed Precip Events Conditions
12:53 AM 48.0 °F - 45.0 °F 89% 30.05 in 7.0 mi Calm Calm - N/A   Clear
1:08 AM 48.2 °F - 46.4 °F 93% 30.01 in 6.0 mi Calm Calm - N/A   Scattered Clouds
1:18 AM 48.2 °F - 46.4 °F 93% 30.02 in 5.0 mi Calm Calm - N/A   Mostly Cloudy
1:53 AM 46.9 °F - 45.0 °F 93% 30.04 in 6.0 mi Calm Calm - N/A   Overcast
2:11 AM 48.2 °F - 46.4 °F 93% 30.02 in 1.8 mi WNW 4.6 mph - N/A   Overcast
2:42 AM 48.2 °F - 46.4 °F 93% 30.02 in 3.0 mi WNW 5.8 mph - N/A   Overcast
2:53 AM 48.9 °F - 46.9 °F 93% 30.04 in 5.0 mi West 5.8 mph - N/A   Overcast
3:13 AM 48.2 °F - 46.4 °F 93% 30.01 in 6.0 mi SW 4.6 mph - N/A   Overcast
3:53 AM 48.0 °F - 46.9 °F 96% 30.04 in 3.0 mi WSW 3.5 mph - N/A   Overcast
4:53 AM 46.9 °F - 45.0 °F 93% 30.03 in 7.0 mi SW 4.6 mph - N/A   Overcast
5:53 AM 44.1 °F - 42.1 °F 93% 30.04 in 6.0 mi Calm Calm - N/A   Overcast
6:53 AM 45.0 °F - 43.0 °F 93% 30.04 in 4.0 mi Calm Calm - N/A   Overcast
7:53 AM 46.0 °F - 45.0 °F 96% 30.05 in 3.0 mi Calm Calm - N/A   Overcast
8:36 AM 46.4 °F 45.2 °F 44.6 °F 93% 30.03 in 6.0 mi SE 3.5 mph - N/A   Overcast
8:53 AM 46.9 °F - 45.0 °F 93% 30.07 in 6.0 mi Calm Calm - N/A   Overcast
9:53 AM 48.0 °F - 44.1 °F 86% 30.06 in 6.0 mi ESE 4.6 mph - N/A   Overcast
10:41 AM 51.8 °F - 46.4 °F 82% 30.03 in 8.0 mi SE 4.6 mph - N/A   Scattered Clouds
10:53 AM 52.0 °F - 46.0 °F 80% 30.06 in 9.0 mi SSE 4.6 mph - N/A   Clear
11:53 AM 57.0 °F - 45.0 °F 64% 30.05 in 10.0 mi Calm Calm - N/A   Clear
12:53 PM 59.0 °F - 48.0 °F 67% 30.04 in 7.0 mi West 11.5 mph - N/A   Clear
1:53 PM 60.1 °F - 46.0 °F 60% 30.03 in 9.0 mi West 9.2 mph - N/A   Clear
2:53 PM 57.9 °F - 45.0 °F 62% 30.02 in 10.0 mi WNW 11.5 mph - N/A   Clear
3:53 PM 57.0 °F - 44.1 °F 62% 30.01 in 10.0 mi West 15.0 mph - N/A   Clear
4:53 PM 55.0 °F - 44.1 °F 67% 30.01 in 10.0 mi West 15.0 mph - N/A   Clear
5:53 PM 52.0 °F - 43.0 °F 71% 30.01 in 10.0 mi West 12.7 mph - N/A   Clear
6:53 PM 51.1 °F - 43.0 °F 74% 30.03 in 10.0 mi West 10.4 mph - N/A   Clear
7:53 PM 51.1 °F - 43.0 °F 74% 30.02 in 10.0 mi West 10.4 mph - N/A   Clear
8:53 PM 50.0 °F - 43.0 °F 77% 30.03 in 10.0 mi West 6.9 mph - N/A   Clear
9:53 PM 50.0 °F - 43.0 °F 77% 30.05 in 10.0 mi West 6.9 mph - N/A   Partly Cloudy
10:53 PM 48.9 °F - 43.0 °F 80% 30.06 in 10.0 mi WNW 3.5 mph - N/A   Partly Cloudy
11:25 PM 48.2 °F - 42.8 °F 82% 30.02 in 10.0 mi West 4.6 mph - N/A   Mostly Cloudy
11:53 PM 48.9 °F - 43.0 °F 80% 30.05 in 10.0 mi Calm Calm - N/A   Scattered Clouds